[[{"header":{"parameterUnit":"m.s-1","parameterCategory":1,"la1":30.2991,"la2":30.254,"lo1":-89.0895,"lo2":-89.0444,"dy":0.0017,"dx":0.0017,"nx":28,"ny":28,"refTime":"2024-06-06T21:00:00:Z","depth":0,"parameterNumber":2,"parameterNumberName":"U-component_of_WINDS"},"data":[0,0,0,0,0,0,0,0,0,0,0,0,0,0,0,0,0,0,0,0,0,0,0,0,0,0,0,0,0,0,0,0,0,0,0,0,0,0,0,0,0,0,0,0,0,0,0,0,0,0,0,0,0,0,0,0,0,0,3.3478,3.3477,0,3.3418,3.3418,3.3417,3.3298,3.3296,3.3293,3.3291,3.3232,3.3233,3.3233,0,0,0,0,0,0,0,0,0,0,0,0,0,3.3491,3.3491,3.3478,3.3477,3.3477,3.3418,3.3418,3.3417,3.3298,3.3296,3.3293,3.329,3.3232,3.3233,3.3233,0,0,0,0,0,0,0,0,0,0,0,0,0,3.3464,3.3491,3.3478,3.341,3.3404,3.3419,3.3418,3.3417,3.3299,3.3295,3.3292,3.3289,3.3232,3.3233,3.3234,3.331,0,0,3.3236,3.3237,0,0,0,0,0,0,0,0,3.3465,3.3463,3.3421,3.3415,3.3408,3.3362,3.34,3.3381,3.33,3.3339,3.3291,3.3287,3.3278,3.3275,3.3272,3.3307,3.3305,3.3236,3.3237,3.3237,3.3238,0,0,0,0,0,0,0,3.3467,3.3465,3.3454,3.3421,3.3412,3.3383,3.3376,3.3396,3.3329,3.3335,3.3326,3.3321,3.3274,3.3271,3.327,3.3304,3.3236,3.3237,3.3238,3.3238,3.3398,3.3402,0,0,0,0,0,0,3.3479,3.3468,3.3456,3.3453,3.3428,3.3386,3.3377,3.338,3.3329,3.3317,3.3324,3.3316,3.3271,3.3269,3.3267,3.3352,3.3237,3.3238,3.3239,3.3394,3.3399,3.3403,0,0,0,0,0,0,3.348,3.3479,3.3459,3.3458,3.3453,3.339,3.3394,3.3381,3.3378,3.332,3.3308,3.3333,3.3268,3.3266,3.33,3.3349,3.3239,3.324,3.339,3.3396,3.3401,3.3524,0,0,0,0,0,0,3.3481,3.348,3.3508,3.3459,3.3453,3.3493,3.3397,3.3382,3.338,3.3368,3.3326,3.3315,3.3265,3.3299,3.3301,3.3348,3.324,3.3385,3.3393,3.3399,3.3516,3.3533,3.3549,0,0,0,0,0,3.3481,3.3546,3.351,3.351,3.3487,3.3496,3.3492,3.3433,3.3384,3.3412,3.3375,3.3317,3.3343,3.3304,3.3305,3.3353,3.3382,3.3391,3.3399,3.3508,3.353,3.3548,0,0,0,0,0,0,3.3604,3.3539,3.3498,3.3549,3.3529,3.3476,3.3509,3.3458,3.3452,3.3442,3.3369,3.336,3.3404,3.3382,3.3339,3.3423,3.3353,3.3362,3.3436,3.3456,3.3473,3.3477,3.3241,0,0,0,0,0,3.3636,3.3648,3.3591,3.3641,3.3633,3.3573,3.3575,3.353,3.3507,3.3498,3.3463,3.3443,3.3446,3.345,3.345,3.3512,3.3501,3.3546,3.3562,3.3576,3.3584,3.3614,3.3633,3.343,3.343,3.343,0,0,3.3704,3.367,3.3682,3.3665,3.3644,3.3658,3.3567,3.3586,3.3595,3.3501,3.353,3.3505,3.3477,3.3525,3.3544,3.3508,3.3638,3.3586,3.3598,3.3599,3.3624,3.3644,3.3661,3.3436,3.3435,3.3434,0,0,3.3835,3.3811,3.3849,3.383,3.3799,3.3758,3.3768,3.3723,3.3701,3.373,3.3659,3.367,3.3678,3.3661,3.3653,3.3777,3.3723,3.3779,3.3865,3.3895,3.3911,3.3925,3.3968,3.3984,3.3788,3.3788,3.3788,0,3.3923,3.3941,3.3876,3.3898,3.3893,3.3807,3.3846,3.383,3.3802,3.38,3.3759,3.3766,3.3742,3.3784,3.3814,3.3812,3.382,3.3783,3.3914,3.3927,3.3939,3.3979,3.3996,3.3795,3.3794,3.3793,3.3793,0,3.405,3.4064,3.4099,3.4072,3.407,3.4101,3.4041,3.4047,3.4003,3.3968,3.3997,3.3965,3.3956,3.3963,3.3921,3.4,3.3978,3.3927,3.3854,3.3966,3.4003,3.4018,3.3805,3.3802,3.38,3.3799,0,0,3.4256,3.4192,3.4206,3.4192,3.4152,3.4161,3.4188,3.4179,3.4185,3.4169,3.4189,3.4197,3.4149,3.4141,3.4096,3.4123,3.4221,3.4068,3.4066,3.4097,3.4304,3.4342,3.4361,3.4186,3.4188,3.4191,3.4306,0,3.4376,3.4418,3.436,3.4414,3.4425,3.4344,3.4368,3.4346,3.4313,3.4318,3.4282,3.4288,3.4225,3.4219,3.4242,3.4205,3.4262,3.4196,3.4204,3.4205,3.4212,3.4381,3.4421,3.4532,3.432,3.4323,3.4324,0,3.4522,3.4512,3.4567,3.4522,3.4525,3.4547,3.4533,3.4539,3.4512,3.4487,3.4477,3.4424,3.4447,3.4378,3.4408,3.4364,3.4364,3.4347,3.4349,3.4347,3.4271,3.4382,3.4566,3.4582,3.4347,3.4345,3.4343,0,3.4665,3.4665,3.4697,3.4688,3.4638,3.4655,3.4634,3.4604,3.4602,3.4591,3.4588,3.4581,3.4576,3.4571,3.4517,3.4472,3.4554,3.448,3.4533,3.4534,3.4553,3.4553,3.4739,3.4555,3.4555,3.4555,3.4554,0,3.4805,3.4842,3.4761,3.4781,3.482,3.4753,3.4793,3.4765,3.4739,3.4752,3.4682,3.4696,3.4624,3.463,3.4588,3.4619,3.4618,3.4598,3.4586,3.4603,3.4606,3.4601,3.4592,3.4559,3.4558,3.4557,3.4557,0,3.4971,3.4918,3.4948,3.4897,3.4885,3.4916,3.4872,3.4889,3.4852,3.4869,3.4869,3.4811,3.4815,3.476,3.4753,3.4725,3.4775,3.475,3.4784,3.4775,3.483,3.4826,3.502,3.5041,3.4846,3.4848,3.4849,0,3.5063,3.5089,3.5041,3.5044,3.5027,3.5034,3.5031,3.4967,3.4967,3.4938,3.4959,3.4956,3.4951,3.4961,3.4918,3.4912,3.4886,3.4954,3.4884,3.4901,3.4885,3.4884,3.4886,3.4968,3.4971,3.4973,3.4975,0,3.5232,3.5204,3.5203,3.5193,3.5191,3.518,3.5164,3.5171,3.5101,3.5105,3.5107,3.5103,3.5095,3.5094,3.508,3.5059,3.5005,3.4997,3.5008,3.5026,3.5044,3.5034,3.4822,3.4993,3.4991,3.4989,3.4988,3.4988,3.5363,3.5382,3.5351,3.5351,3.5332,3.5319,3.5332,3.5296,3.5297,3.5285,3.5247,3.5256,3.5228,3.5204,3.5188,3.5194,3.516,3.5177,3.5181,3.5186,3.5196,3.5044,3.5191,3.519,3.519,3.5189,3.5189,0,3.5527,3.5503,3.5504,3.5484,3.5484,3.5433,3.5413,3.5417,3.5425,3.5404,3.54,3.5402,3.54,3.5357,3.535,3.5363,3.5338,3.5363,3.5361,3.5357,3.5227,3.5217,3.5383,3.5383,3.5383,3.5383,3.5383,3.5383,3.5612,3.5642,3.561,3.563,3.5605,3.5613,3.5606,3.5593,3.5575,3.5581,3.5579,3.5551,3.552,3.551,3.5506,3.5493,3.5493,3.5527,3.5506,3.5385,3.5366,3.5348,3.5339,3.5528,3.5528,3.5635,3.5636,3.5637]},{"header":{"parameterUnit":"m.s-1","parameterCategory":1,"la1":30.2991,"la2":30.254,"lo1":-89.0895,"lo2":-89.0444,"dy":0.0017,"dx":0.0017,"nx":28,"ny":28,"refTime":"2024-06-06T21:00:00:Z","depth":0,"parameterNumber":3,"parameterNumberName":"V-component_of_WINDS"},"data":[0,0,0,0,0,0,0,0,0,0,0,0,0,0,0,0,0,0,0,0,0,0,0,0,0,0,0,0,0,0,0,0,0,0,0,0,0,0,0,0,0,0,0,0,0,0,0,0,0,0,0,0,0,0,0,0,0,0,1.1291,1.1291,0,1.1316,1.1316,1.1316,1.1329,1.1329,1.1329,1.1329,1.1356,1.1357,1.1357,0,0,0,0,0,0,0,0,0,0,0,0,0,1.1258,1.1259,1.1291,1.1292,1.1292,1.1316,1.1316,1.1316,1.1329,1.1329,1.1329,1.1329,1.1356,1.1357,1.1357,0,0,0,0,0,0,0,0,0,0,0,0,0,1.1277,1.1259,1.1291,1.1301,1.1302,1.1316,1.1316,1.1316,1.1329,1.1329,1.1329,1.1329,1.1355,1.1357,1.1358,1.1364,0,0,1.1361,1.1361,0,0,0,0,0,0,0,0,1.1275,1.1278,1.1299,1.13,1.1302,1.1319,1.1314,1.1332,1.1329,1.1319,1.1329,1.1329,1.1344,1.1346,1.1351,1.1365,1.1366,1.1361,1.1362,1.1362,1.1362,0,0,0,0,0,0,0,1.1274,1.1277,1.1301,1.1299,1.1301,1.1305,1.1308,1.1318,1.1331,1.132,1.1321,1.1323,1.1345,1.1349,1.1351,1.1367,1.1361,1.1362,1.1363,1.1363,1.139,1.139,0,0,0,0,0,0,1.1271,1.1276,1.13,1.1302,1.1288,1.1306,1.1308,1.1314,1.1331,1.1334,1.1323,1.1324,1.1348,1.135,1.1352,1.1362,1.1362,1.1363,1.1364,1.139,1.139,1.139,0,0,0,0,0,0,1.127,1.1273,1.1299,1.1289,1.1293,1.1306,1.1312,1.1314,1.1319,1.1334,1.1336,1.1326,1.1348,1.1351,1.1361,1.1363,1.1364,1.1365,1.139,1.139,1.139,1.1381,0,0,0,0,0,0,1.1269,1.1273,1.1274,1.1289,1.1293,1.1307,1.1312,1.1314,1.1321,1.1321,1.1337,1.1339,1.1348,1.136,1.1362,1.1365,1.1365,1.139,1.139,1.139,1.1381,1.138,1.138,0,0,0,0,0,1.1268,1.1271,1.1274,1.1277,1.1295,1.1307,1.1309,1.1319,1.1321,1.1323,1.1333,1.1339,1.1362,1.1361,1.1364,1.1366,1.139,1.139,1.139,1.1381,1.138,1.138,0,0,0,0,0,0,1.1257,1.1273,1.1277,1.1285,1.1294,1.1309,1.1312,1.1318,1.1328,1.1328,1.134,1.1344,1.1353,1.1361,1.1358,1.1374,1.1377,1.1378,1.1369,1.1368,1.1368,1.1366,1.1366,0,0,0,0,0,1.1255,1.1262,1.1276,1.1282,1.1286,1.1298,1.1304,1.131,1.1321,1.1325,1.1336,1.1347,1.1357,1.1363,1.1373,1.1382,1.1386,1.1386,1.1385,1.1385,1.1385,1.1392,1.1393,1.1391,1.1391,1.1391,0,0,1.1252,1.1261,1.1265,1.128,1.1288,1.1296,1.1302,1.131,1.1316,1.1327,1.1337,1.1345,1.1359,1.1369,1.1374,1.1375,1.1387,1.1385,1.1385,1.1386,1.1393,1.1393,1.1393,1.1391,1.1391,1.1391,0,0,1.125,1.1257,1.1263,1.1271,1.1284,1.1292,1.1294,1.1308,1.1313,1.1324,1.1333,1.1341,1.1358,1.1367,1.1374,1.1378,1.1384,1.1381,1.1379,1.1385,1.1385,1.1386,1.1388,1.1388,1.1381,1.1381,1.1381,0,1.1244,1.1256,1.1266,1.1273,1.128,1.129,1.1297,1.1304,1.132,1.1325,1.1326,1.1348,1.1358,1.1371,1.1372,1.1377,1.138,1.1379,1.1384,1.1385,1.1385,1.1388,1.1388,1.1381,1.1381,1.1381,1.1381,0,1.1249,1.1257,1.126,1.1274,1.1282,1.1289,1.1301,1.1307,1.1314,1.1322,1.1334,1.1346,1.1359,1.1363,1.1369,1.1377,1.1378,1.1382,1.1385,1.1385,1.1387,1.1388,1.138,1.138,1.1381,1.1381,0,0,1.124,1.126,1.1261,1.1268,1.1283,1.129,1.1299,1.1311,1.1317,1.1327,1.1336,1.135,1.1354,1.1362,1.137,1.1376,1.1379,1.1379,1.138,1.138,1.1391,1.1388,1.1389,1.1384,1.1384,1.1384,1.139,0,1.124,1.1255,1.1264,1.1275,1.1284,1.1294,1.1302,1.1313,1.1321,1.1331,1.1341,1.1351,1.1355,1.136,1.1366,1.1377,1.1382,1.1377,1.1393,1.1393,1.1389,1.139,1.1387,1.1392,1.1391,1.1391,1.1391,0,1.1242,1.1253,1.1264,1.128,1.1284,1.129,1.1303,1.1311,1.1325,1.1331,1.134,1.1348,1.1359,1.1361,1.1377,1.1374,1.1381,1.1388,1.1388,1.139,1.1392,1.1393,1.1393,1.1394,1.1393,1.1393,1.1392,0,1.1235,1.1252,1.1262,1.1267,1.1285,1.129,1.1298,1.1311,1.1318,1.133,1.1335,1.1349,1.1356,1.1367,1.1379,1.1379,1.1394,1.1397,1.1401,1.1401,1.1403,1.1403,1.1406,1.1407,1.1407,1.1407,1.1407,0,1.1235,1.1242,1.1259,1.1265,1.1273,1.1285,1.1294,1.1303,1.1315,1.1324,1.1334,1.1342,1.1358,1.1369,1.1378,1.1391,1.1394,1.14,1.1403,1.14,1.1399,1.1405,1.1405,1.1407,1.1407,1.1407,1.1407,0,1.1228,1.124,1.1251,1.1267,1.1272,1.1277,1.1292,1.1299,1.1309,1.132,1.1323,1.1339,1.1352,1.1366,1.1384,1.1391,1.1403,1.1406,1.1399,1.14,1.1403,1.1403,1.141,1.1413,1.1412,1.1412,1.1412,0,1.1227,1.1233,1.125,1.1257,1.1264,1.1274,1.1282,1.1295,1.1302,1.1319,1.1324,1.1338,1.135,1.1371,1.1385,1.14,1.1404,1.1405,1.1406,1.1403,1.1405,1.1404,1.1406,1.1405,1.1405,1.1405,1.1405,0,1.1225,1.1231,1.1241,1.1253,1.1262,1.1273,1.1284,1.1289,1.1304,1.1313,1.1326,1.1336,1.1354,1.1369,1.1385,1.1395,1.1403,1.1404,1.1406,1.1403,1.1398,1.1402,1.1398,1.1404,1.1404,1.1404,1.1404,1.1404,1.1222,1.1228,1.1241,1.1252,1.1262,1.1273,1.128,1.1291,1.1302,1.1318,1.1325,1.1339,1.1355,1.1377,1.1387,1.1399,1.1401,1.1404,1.1404,1.1405,1.1405,1.1396,1.1402,1.1402,1.1402,1.1402,1.1402,0,1.122,1.1229,1.124,1.1255,1.1265,1.1271,1.1284,1.1292,1.1304,1.1317,1.1328,1.1345,1.136,1.1375,1.1391,1.1398,1.1402,1.1402,1.1401,1.1404,1.1401,1.1399,1.1398,1.1398,1.1398,1.1398,1.1398,1.1398,1.122,1.1231,1.1239,1.1255,1.1265,1.1278,1.1285,1.1296,1.1306,1.1324,1.1336,1.1346,1.136,1.1378,1.1392,1.1396,1.1402,1.1401,1.1406,1.1404,1.1404,1.1404,1.1402,1.1402,1.1402,1.1408,1.1408,1.1408]}]]